Weather in Saint John's

Canada     47˚33′42″N   52˚42′43″W
temp.,
°C
wind,
m/s
gust,
m/s
humid.,
%
clouds,
%
prec.,
mm/h
press.,
hPa
HPBL,
m
2 december, wed
wed223:30+5˚sse6159278 0.0 1037496
02:30+6˚sse7159489 0.0 1034519
05:30+8˚sse41397100 0.0 1032495
08:30+8˚sse3898100 0.1 1031268
11:30+10˚sse279799 0.1 1030249
14:30+11˚sse5139799 0.4 1027412
17:30+11˚s8199598 0.1 1026595
20:30+11˚s9199487 0.1 1025664
3 december, thu
thu323:30+11˚s9209396 0.0 1023847
02:30+11˚s9209598 0.9 1020778
05:30+11˚s92095100 10.2 1019964
08:30+12˚s71695100 17.7 1019624
11:30+12˚s61495100 0.4 1018545
14:30+12˚s51296100 1.3 1017536
17:30+12˚ssw41097100 0.4 1017361
20:30+11˚ssw2898100 2.7 1018306
4 december, fri
fri423:30+11˚w2498100 2.6 1018176
02:30+9˚wnw4791100 5.5 1018295
05:30+7˚wnw3686100 1.9 1019261
08:30+6˚wnw2587100 1.9 1020164
11:30+8˚wnw348129 0.0 1020308
14:30+8˚wnw368015 0.0 1020542
17:30+5˚w368928 0.0 1021233
20:30+3˚wsw278732 0.0 1022237
5 december, sat
sat523:30+3˚sw379110 0.0 1022246
02:30+3˚ssw379038 0.0 1022260
05:30+3˚ssw3119226 0.0 1021318
08:30+5˚ssw5138957 0.0 1020409
11:30+9˚ssw6138073 0.0 1018934
14:30+10˚ssw7158272 0.1 10161032
17:30+9˚sw51292100 2.6 1016787
20:30+8˚sw3992100 3.8 1016551
6 december, sun
sun623:30+7˚w2696100 0.6 1016337
02:30+6˚wnw3687100 0.7 1016361
05:30+6˚nnw1290100 0.0 1016165
08:30+4˚ne3592100 0.3 1017247
11:30+3˚ene4791100 0.4 1016249
14:30+4˚e5995100 1.1 1013270
17:30+5˚e61298100 3.8 1011320
20:30+7˚se81596100 3.8 1008572